Orbital Elements at Epoch 2459200.5 (2020-Dec-17.0) TDB
Reference: JPL 20 (heliocentric ecliptic J2000)
Element | Value | Uncertainty (1-sigma) | Units |
e | .1590887308349676 | 6.714e-08 | |
a | 2.405719555244481 | 1.9954e-08 | au |
q | 2.022996684455773 | 1.6915e-07 | au |
i | 24.00382951061468 | 6.8635e-06 | deg |
node | 230.7507655092764 | 1.2976e-05 | deg |
peri | 161.8831690398809 | 2.1668e-05 | deg |
M | 336.2711521579637 | 1.931e-05 | deg |
tp | 2459290.333862960408 (2021-Mar-16.83386296) | 7.3757e-05 | TDB |
period | 1362.906066111442 3.73 | 1.6957e-05 4.643e-08 | d yr |
n | .2641414613606712 | 3.2864e-09 | deg/d |
Q | 2.788442426033188 | 2.3129e-08 | au |
|
| | Orbit Determination Parameters
Additional Information
|